Find Starlink 3885

NORAD ID: 52463 Int'l Des: 2022-049 Owner: SPXS Country: US Constellation: starlink operational
LEOCIRCULAR

Live Position

Loading 3D Globe...

About Starlink 3885

Description loading...

Upcoming Passes

Passes for default location (London). Set your location on the main map for personalized predictions.

Altitude History

Loading altitude history...

Two-Line Element Set

1 52463U 22049N 26123.51638087 .00000277 00000-0 35460-4 0 9997
2 52463 53.2166 162.9953 0001242 87.0662 273.0472 15.08842172220667
Epoch: May 3, 2026 • Age: 14 hours

Current Status

Altitude 547.7 km
Velocity 7.59 km/s
Sub-Earth Point -25.72°S, 121°W
Launch Date May 6, 2022
Age 3.9 years
Type internet

Technical Details

Classification Payload
Mass 297.00 kg
Dry Mass 220.00 kg
Total Mass 297.00 kg
Length 0.20 m
Diameter 2.80 m
Span 9.00 m
Shape Box + pan
Manufacturer SPXS
Bus Type Starlink
Phase Status In Orbit
Owner/State SPXS/US

Most Searched